TimeCST,TemperatureF,Dew PointF,Humidity,Sea Level PressureIn,VisibilityMPH,Wind Direction,Wind SpeedMPH,Gust SpeedMPH,PrecipitationIn,Events,Conditions,WindDirDegrees,DateUTC
12:52 AM,55.0,41.0,59,29.88,10.0,South,17.3,20.7,N/A,,Overcast,180,2013-03-09 06:52:00
1:52 AM,55.0,42.1,62,29.86,10.0,South,12.7,-,N/A,,Overcast,180,2013-03-09 07:52:00
2:52 AM,55.0,44.1,67,29.81,10.0,South,10.4,19.6,N/A,,Overcast,190,2013-03-09 08:52:00
3:52 AM,54.0,46.0,75,29.77,8.0,SSW,11.5,-,0.00,Rain,Light Rain,210,2013-03-09 09:52:00
4:52 AM,54.0,46.0,75,29.78,10.0,SW,13.8,-,0.01,,Overcast,220,2013-03-09 10:52:00
5:52 AM,54.0,46.0,75,29.78,10.0,SSW,15.0,21.9,0.00,Rain,Light Rain,200,2013-03-09 11:52:00
6:52 AM,51.1,48.0,89,29.77,4.0,SSW,10.4,-,0.08,Rain,Rain,200,2013-03-09 12:52:00
7:09 AM,51.8,46.4,82,29.76,5.0,South,11.5,-,0.03,Rain,Light Rain,190,2013-03-09 13:09:00
7:52 AM,51.1,48.0,89,29.77,2.5,SSW,13.8,26.5,0.13,Rain,Rain,210,2013-03-09 13:52:00
7:59 AM,51.8,48.2,88,29.77,3.0,SSW,12.7,23.0,0.02,Rain,Rain,210,2013-03-09 13:59:00
8:04 AM,51.8,48.2,88,29.77,2.5,SSW,13.8,-,0.03,Rain,Rain,210,2013-03-09 14:04:00
8:20 AM,51.8,48.2,88,29.77,3.0,SSW,11.5,21.9,0.08,Rain,Rain,200,2013-03-09 14:20:00
8:52 AM,50.0,48.0,93,29.76,4.0,South,9.2,-,0.13,Rain,Light Rain,190,2013-03-09 14:52:00
9:52 AM,52.0,48.0,86,29.70,7.0,South,17.3,-,0.03,Rain,Light Rain,170,2013-03-09 15:52:00
10:52 AM,53.1,48.9,86,29.69,8.0,South,11.5,19.6,0.04,Rain,Light Rain,180,2013-03-09 16:52:00
11:52 AM,54.0,50.0,86,29.65,10.0,South,16.1,25.3,0.01,Rain,Light Rain,170,2013-03-09 17:52:00
12:52 PM,55.9,52.0,87,29.64,10.0,South,12.7,-,0.00,,Overcast,190,2013-03-09 18:52:00
1:52 PM,57.0,54.0,89,29.63,5.0,SSW,13.8,25.3,0.02,Rain,Rain,200,2013-03-09 19:52:00
2:52 PM,57.9,55.9,93,29.59,9.0,South,11.5,18.4,0.02,Rain,Light Rain,180,2013-03-09 20:52:00
3:52 PM,57.0,54.0,89,29.57,10.0,SSE,15.0,-,0.00,Rain,Light Rain,150,2013-03-09 21:52:00
4:52 PM,57.0,53.1,87,29.56,10.0,SSE,15.0,20.7,N/A,,Scattered Clouds,160,2013-03-09 22:52:00
5:52 PM,57.0,53.1,87,29.56,10.0,Variable,3.5,-,N/A,,Partly Cloudy,0,2013-03-09 23:52:00
6:33 PM,55.4,51.8,88,29.58,10.0,Calm,Calm,-,N/A,,Mostly Cloudy,0,2013-03-10 00:33:00
6:52 PM,55.9,53.1,90,29.57,10.0,Variable,3.5,-,N/A,,Overcast,0,2013-03-10 00:52:00
7:36 PM,57.2,53.6,88,29.56,10.0,South,10.4,18.4,N/A,,Scattered Clouds,170,2013-03-10 01:36:00
7:52 PM,57.0,54.0,89,29.56,10.0,SW,5.8,16.1,N/A,,Scattered Clouds,220,2013-03-10 01:52:00
8:03 PM,57.2,53.6,88,29.56,10.0,SSW,5.8,-,N/A,,Mostly Cloudy,210,2013-03-10 02:03:00
8:39 PM,55.4,51.8,88,29.56,10.0,SSW,9.2,-,N/A,,Scattered Clouds,200,2013-03-10 02:39:00
8:52 PM,54.0,52.0,93,29.57,10.0,SW,9.2,-,N/A,,Clear,220,2013-03-10 02:52:00
9:52 PM,51.8,50.0,94,29.58,10.0,SW,3.5,-,N/A,,Clear,220,2013-03-10 03:52:00
10:52 PM,54.0,51.1,90,29.61,10.0,West,8.1,-,N/A,,Scattered Clouds,280,2013-03-10 04:52:00
11:01 PM,53.6,51.8,94,29.61,10.0,WSW,9.2,-,N/A,,Mostly Cloudy,250,2013-03-10 05:01:00
11:19 PM,53.6,50.0,88,29.61,10.0,WSW,5.8,-,N/A,,Mostly Cloudy,240,2013-03-10 05:19:00
11:52 PM,53.1,48.9,86,29.59,10.0,North,11.5,-,N/A,,Overcast,350,2013-03-10 05:52:00